Tracking 19192 objects as of 20-Jun-2018
HD Live streaming from Space Station
objects crossing your sky now

MIDAS 5 DEB

Track MIDAS 5 DEB now!
10-day predictions


NORAD ID: 274
Int'l Code: 1962-010D
Perigee: 2,806.7 km
Apogee: 3,428.2 km
Inclination: 86.7 °
Period: 153.3 minutes
Semi major axis: 9488 km
RCS: 0.5115 m2 (medium)
Launch date: April 9, 1962
Source: United States (US)
Launch site: AIR FORCE WESTERN TEST RANGE (AFWTR)

Note: This is SATELLITE DEBRIS
aabbcc
Your satellite tracking list
Your tracking list is empty




NASA's NSSDC Master Catalog

Two Line Element Set (TLE):
1   274U 62010D   18169.05470878 +.00000026 +00000-0 +44006-2 0  9990
2   274 086.6706 036.3774 0327500 137.5329 225.1410 09.39318630926616
Source of the keplerian elements: AFSPC